Weather History for Lexington, NE

Change the Weather History Date:

Thursday, March 14, 2013

  Actual Average Record
Temperature  
Mean Temperature 54 °F -  
Max Temperature 73 °F 47 °F 118 °F (1999)
Min Temperature 36 °F 23 °F 10 °F (1997)
Degree Days  
Heating Degree Days 10    
Growing Degree Days 4 (Base 50)    
Moisture  
Dew Point 33 °F    
Average Humidity 49    
Maximum Humidity 83    
Minimum Humidity 20    
Precipitation  
Precipitation 0.00 in - - ()
Sea Level Pressure  
Sea Level Pressure 30.10 in    
Wind  
Wind Speed 7 mph (West)    
Max Wind Speed 14 mph    
Max Gust Speed 18 mph    
Visibility 10 miles    
Events      
Averages and records for this station are not official NWS values.
T = Trace of Precipitation, MM = Missing Value Source: NWS Daily Summary

Daily Weather History Graph

Daily Weather History Graph

Search for Another Location

Airport:

Trip Planner

Search our weather history database for the weather conditions in past years. The results will help you decide how hot, cold, wet, or windy it might be!

Date:

Astronomy

Mar. 14, 2013 Rise Set
Actual Time 7:51 AM CDT 7:45 PM CDT
Civil Twilight 7:24 AM CDT 8:12 PM CDT
Nautical Twilight 6:52 AM CDT 8:44 PM CDT
Astronomical Twilight 6:20 AM CDT 9:16 PM CDT
Moon 9:05 AM CDT (3/14) 11:04 PM CDT (3/14)
Length of Visible Light 12h 47m
Length of Day
11h 53m
Waxing Crescent, 9% of the Moon is Illuminated
Mar 14
Waxing Crescent
Mar 19
First Quarter
Mar 27
Full
Apr 2
Last Quarter
Apr 10
New

Hourly Weather History & Observations

Time (CDT) Temp. Windchill Dew Point Humidity Pressure Visibility Wind Dir Wind Speed Gust Speed Precip Events Conditions
12:15 AM 43.0 °F 38.8 °F 33.3 °F 69% 30.11 in 10.0 mi SSE 6.9 mph - N/A   Clear
12:35 AM 43.3 °F 39.2 °F 33.4 °F 68% 30.11 in 10.0 mi South 6.9 mph - N/A   Clear
12:55 AM 44.6 °F 41.4 °F 33.8 °F 66% 30.11 in 10.0 mi South 5.8 mph - N/A   Clear
1:15 AM 42.3 °F 40.5 °F 33.4 °F 71% 30.11 in 10.0 mi South 3.5 mph - N/A   Clear
1:35 AM 42.3 °F - 33.3 °F 70% 30.10 in 10.0 mi Calm Calm - N/A   Clear
1:55 AM 41.9 °F 38.2 °F 33.1 °F 71% 30.10 in 10.0 mi WSW 5.8 mph - N/A   Clear
2:15 AM 43.3 °F 40.7 °F 32.4 °F 65% 30.09 in 10.0 mi WSW 4.6 mph - N/A   Clear
2:35 AM 43.7 °F 40.3 °F 32.0 °F 63% 30.08 in 10.0 mi West 5.8 mph - N/A   Clear
2:55 AM 44.4 °F 42.9 °F 32.0 °F 62% 30.08 in 10.0 mi West 3.5 mph - N/A   Clear
3:15 AM 40.5 °F 38.4 °F 31.5 °F 70% 30.07 in 10.0 mi West 3.5 mph - N/A   Clear
3:35 AM 39.2 °F 37.0 °F 31.6 °F 74% 30.07 in 10.0 mi WNW 3.5 mph - N/A   Clear
3:55 AM 37.6 °F 34.0 °F 31.1 °F 77% 30.07 in 10.0 mi West 4.6 mph - N/A   Clear
4:15 AM 37.0 °F 33.3 °F 30.7 °F 78% 30.06 in 10.0 mi West 4.6 mph - N/A   Clear
4:35 AM 36.7 °F 31.2 °F 31.8 °F 83% 30.06 in 10.0 mi West 6.9 mph - N/A   Clear
4:55 AM 39.2 °F 33.6 °F 32.4 °F 76% 30.06 in 10.0 mi WNW 8.1 mph - N/A   Clear
5:15 AM 38.3 °F 31.9 °F 32.2 °F 79% 30.06 in 10.0 mi WNW 9.2 mph - N/A   Clear
5:35 AM 39.4 °F 32.7 °F 32.4 °F 76% 30.06 in 10.0 mi WNW 10.4 mph - N/A   Clear
5:55 AM 39.2 °F 32.0 °F 32.5 °F 77% 30.06 in 10.0 mi West 11.5 mph - N/A   Clear
6:15 AM 40.1 °F 32.7 °F 33.3 °F 77% 30.07 in 10.0 mi West 12.7 mph - N/A   Clear
6:35 AM 40.8 °F 33.3 °F 34.0 °F 77% 30.07 in 10.0 mi West 13.8 mph - N/A   Clear
6:55 AM 41.5 °F 34.6 °F 34.7 °F 77% 30.08 in 10.0 mi WNW 12.7 mph - N/A   Clear
7:15 AM 41.0 °F 34.3 °F 34.3 °F 77% 30.08 in 10.0 mi WNW 11.5 mph - N/A   Clear
7:35 AM 40.6 °F 34.8 °F 34.0 °F 77% 30.10 in 10.0 mi WNW 9.2 mph - N/A   Clear
7:55 AM 40.5 °F 33.6 °F 34.0 °F 78% 30.11 in 10.0 mi WNW 11.5 mph - N/A   Clear
8:15 AM 40.5 °F 32.8 °F 34.0 °F 78% 30.12 in 10.0 mi WNW 13.8 mph - N/A   Clear
8:35 AM 40.8 °F 33.3 °F 34.2 °F 77% 30.12 in 10.0 mi WNW 13.8 mph - N/A   Clear
8:55 AM 42.1 °F 35.2 °F 34.7 °F 75% 30.13 in 10.0 mi WNW 12.7 mph - N/A   Clear
9:15 AM 43.5 °F 37.5 °F 35.2 °F 73% 30.14 in 10.0 mi WNW 11.5 mph - N/A   Clear
9:35 AM 45.0 °F 39.3 °F 35.2 °F 69% 30.15 in 10.0 mi WNW 11.5 mph - N/A   Clear
9:55 AM 46.4 °F 42.4 °F 35.6 °F 66% 30.15 in 10.0 mi WNW 8.1 mph - N/A   Clear
10:15 AM 49.6 °F - 36.1 °F 60% 30.16 in 10.0 mi WNW 11.5 mph - N/A   Clear
10:35 AM 53.1 °F - 36.7 °F 54% 30.16 in 10.0 mi WNW 10.4 mph - N/A   Clear
10:55 AM 55.4 °F - 37.4 °F 51% 30.17 in 10.0 mi WNW 10.4 mph - N/A   Clear
11:15 AM 58.5 °F - 37.8 °F 46% 30.17 in 10.0 mi WNW 8.1 mph - N/A   Clear
11:35 AM 61.7 °F - 36.9 °F 40% 30.18 in 10.0 mi WNW 8.1 mph - N/A   Clear
11:55 AM 65.7 °F - 33.6 °F 30% 30.18 in 10.0 mi NNW 9.2 mph - N/A   Clear
12:15 PM 66.9 °F - 31.8 °F 27% 30.18 in 10.0 mi North 5.8 mph - N/A   Clear
12:35 PM 68.4 °F - 31.6 °F 26% 30.18 in 10.0 mi NNW 5.8 mph - N/A   Clear
12:55 PM 69.3 °F - 31.8 °F 25% 30.17 in 10.0 mi NE 5.8 mph - N/A   Clear
1:15 PM 69.8 °F - 32.2 °F 25% 30.17 in 10.0 mi North 3.5 mph - N/A   Clear
1:35 PM 70.7 °F - 32.2 °F 24% 30.17 in 10.0 mi NNW 11.5 mph - N/A   Clear
1:55 PM 70.3 °F - 31.5 °F 24% 30.16 in 10.0 mi East 4.6 mph - N/A   Clear
2:15 PM 70.7 °F - 31.5 °F 23% 30.15 in 10.0 mi NNE 3.5 mph - N/A   Clear
2:35 PM 70.7 °F - 31.5 °F 23% 30.13 in 10.0 mi North 4.6 mph - N/A   Clear
2:55 PM 71.2 °F - 31.1 °F 23% 30.13 in 10.0 mi Calm Calm - N/A   Clear
3:15 PM 71.8 °F - 30.4 °F 22% 30.13 in 10.0 mi West 8.1 mph - N/A   Clear
3:35 PM 72.1 °F - 30.7 °F 22% 30.12 in 10.0 mi WNW 4.6 mph - N/A   Clear
3:55 PM 72.1 °F - 30.2 °F 21% 30.11 in 10.0 mi Calm Calm - N/A   Clear
4:15 PM 73.0 °F - 30.2 °F 21% 30.10 in 10.0 mi NNW 6.9 mph - N/A   Clear
4:35 PM 73.4 °F - 30.2 °F 20% 30.10 in 10.0 mi WNW 4.6 mph - N/A   Clear
4:55 PM 73.6 °F - 30.9 °F 21% 30.10 in 10.0 mi NW 10.4 mph 18.4 mph N/A   Clear
5:15 PM 72.9 °F - 30.9 °F 21% 30.10 in 10.0 mi NNW 3.5 mph - N/A   Clear
5:35 PM 73.0 °F - 30.0 °F 20% 30.10 in 10.0 mi NNW 4.6 mph - N/A   Clear
5:55 PM 72.9 °F - 30.0 °F 21% 30.08 in 10.0 mi Calm Calm - N/A   Clear
6:15 PM 72.5 °F - 30.9 °F 22% 30.08 in 5.0 mi WNW 4.6 mph - N/A   Haze
6:35 PM 72.5 °F - 30.2 °F 21% 30.08 in 10.0 mi NNW 3.5 mph - N/A   Clear
6:55 PM 71.1 °F - 32.7 °F 24% 30.08 in 4.0 mi Calm Calm - N/A   Haze
7:15 PM 69.8 °F - 34.3 °F 27% 30.08 in 2.0 mi Calm Calm - N/A   Haze
7:35 PM 68.0 °F - 32.5 °F 27% 30.08 in 4.0 mi East 3.5 mph - N/A   Haze
7:55 PM 66.6 °F - 31.1 °F 27% 30.07 in 10.0 mi SE 4.6 mph - N/A   Clear
8:15 PM 64.8 °F - 30.9 °F 28% 30.08 in 10.0 mi Calm Calm - N/A   Clear
8:35 PM 61.3 °F - 32.2 °F 33% 30.07 in 10.0 mi SSE 5.8 mph - N/A   Clear
8:55 PM 60.8 °F - 32.0 °F 34% 30.07 in 10.0 mi SSE 4.6 mph - N/A   Clear
9:15 PM 57.4 °F - 34.3 °F 42% 30.06 in 10.0 mi SSE 5.8 mph - N/A   Clear
9:35 PM 57.7 °F - 33.1 °F 39% 30.06 in 10.0 mi SSE 8.1 mph - N/A   Clear
9:55 PM 57.2 °F - 34.0 °F 42% 30.05 in 10.0 mi SE 5.8 mph - N/A   Clear
10:15 PM 56.3 °F - 33.8 °F 43% 30.04 in 10.0 mi SSE 8.1 mph - N/A   Clear
10:35 PM 53.2 °F - 34.7 °F 49% 30.05 in 10.0 mi SSE 6.9 mph - N/A   Clear
10:55 PM 51.8 °F - 35.2 °F 53% 30.05 in 10.0 mi SSE 6.9 mph - N/A   Clear
11:15 PM 52.9 °F - 35.4 °F 52% 30.04 in 10.0 mi SSE 10.4 mph - N/A   Clear
11:35 PM 54.9 °F - 35.6 °F 48% 30.04 in 10.0 mi South 10.4 mph - N/A   Clear
11:55 PM 53.8 °F - 35.6 °F 50% 30.03 in 10.0 mi South 12.7 mph - N/A   Clear